Location: Madrid
(40.4167°N, 3.7036°W)
Time: 09:23:06
(UTC+00:00)

ISS - Pass Details

Date: 10 May 2025
Orbit: 416 x 420 km, 51.6° (Epoch: 12 May)

Event Time Altitude Azimuth Distance (km) Brightness Sun altitude
Rises 20:55:16 0° 244° (WSW) 2,350 0.3 -16.1°
Reaches altitude 10° 20:57:24 10° 249° (WSW) 1,489 -0.6 -16.4°
Maximum altitude 21:00:40 52° 327° (NNW) 522 -2.9 -16.8°
Drops below altitude 10° 21:03:57 10° 45° (NE) 1,495 -1.0 -17.3°
Sets 21:06:06 0° 51° (NE) 2,360 0.0 -17.6°
